Location: Allisons_Woods
(35.8920°N, 81.8170°W)
Time: 17:51:05
(UTC-04:00)

Daily predictions for brighter satellites

Satellite Brightness Start Highest point End
(mag) Time Altitude Azimuth Time Altitude Azimuth Time Altitude Azimuth
CENTAUR R/B 3.3 20:54:36 10° NNW 21:02:30 66° NE 21:10:46 10° SE
Cosmos 1340 Rocket 2.8 21:01:02 10° S 21:05:00 86° E 21:09:02 10° N
Cosmos 389 Rocket 4.5 21:03:43 10° NNW 21:06:49 30° W 21:09:55 10° SSW
ALOS 2.4 21:06:22 10° S 21:11:02 84° WSW 21:15:44 10° NNW
Cosmos 2056 Rocket 3.5 21:06:07 10° S 21:11:13 64° ESE 21:16:18 10° NNE
Cosmos 1371 Rocket 4.1 21:08:12 10° SSW 21:13:33 86° WNW 21:18:51 10° NNE
Cosmos 1733 Rocket 3.3 21:09:44 10° SSE 21:14:00 51° E 21:18:16 10° NNE
Cosmos 1782 3.9 21:12:15 10° NNE 21:15:45 28° ENE 21:19:15 10° SE
Cosmos 1892 2.6 21:13:05 10° S 21:16:53 74° E 21:20:44 10° N
deb Chang Zheng 4 4.5 21:13:20 10° NE 21:17:12 29° E 21:21:04 10° SSE
NOSS 2-2 (D) 3.8 21:13:49 10° SW 21:17:51 74° WNW 21:22:25 10° NNE
Atlas Centaur 2 1.8 21:14:43 10° WSW 21:18:02 34° S 21:21:00 12° ESE
Cosmos 2084 4.2 21:15:27 10° S 21:18:39 24° ESE 21:21:48 10° ENE
Cosmos 2184 Rocket 4.0 21:14:44 10° S 21:20:50 70° E 21:26:58 10° NNE
Cosmos 1939 Rocket 3.8 21:18:44 10° SE 21:22:02 29° ENE 21:25:27 10° N
H-2A R/B 3.2 21:21:11 10° S 21:24:49 60° W 21:28:31 10° NNW
YAOGAN 11 4.3 21:20:29 10° SSE 21:24:54 63° ENE 21:29:25 10° N
SPOT 5 4.1 21:27:03 12° ESE 21:30:58 29° ENE 21:35:30 10° N
ISS -2.9 21:28:24 10° SSW 21:31:26 38° SE 21:34:30 10° ENE
SL-27 R/B 2.9 21:29:33 10° N 21:33:04 46° ENE 21:35:38 16° SE
Meteor 2-6 Rocket 4.4 21:34:37 10° N 21:40:31 62° E 21:45:56 12° SSE
H-2A R/B 2.5 21:38:19 16° SE 21:41:30 44° ENE 21:45:34 10° N
COSMOS 2487 4.4 21:43:39 10° NNE 21:46:03 17° ENE 21:47:00 15° E
Envisat 3.1 21:42:57 15° SSE 21:47:06 57° ENE 21:52:05 10° N
ATLAS 5 CENTAUR R/B 2.5 21:41:25 10° NNW 21:47:34 82° WSW 21:52:58 15° SSE
USA 186 4.0 21:45:44 10° SSW 21:48:15 23° W 21:50:54 10° NW
SEDSat Delta rocket 4.4 21:48:40 10° SSW 21:51:23 18° SSE 21:51:23 18° SSE
ERBS 2.8 21:50:25 10° NW 21:53:48 56° SW 21:55:38 24° SSE
PSLV R/B 3.2 21:50:41 10° WNW 21:54:07 79° SSW 21:55:41 30° ESE
COSMOS 2406 3.4 21:48:30 10° NNW 21:54:14 73° WSW 21:59:15 13° SSE
Intercosmos 25 4.5 21:57:44 22° E 21:57:44 22° E 22:00:14 10° NE
GPS 2-05 Rocket1 2.9 21:55:17 10° WSW 21:58:55 60° SSE 22:00:35 28° E
OAO 3 Rocket 4.1 21:56:43 10° SW 22:00:59 29° SSE 22:02:07 26° SE
Cosmos 2278 Rocket 2.2 21:57:25 10° S 22:02:59 62° ESE 22:08:36 10° NNE
H-2A R/B 3.9 22:03:38 14° E 22:05:15 15° ENE 22:08:17 10° NNE
Cosmos 1825 2.1 22:04:37 25° S 22:06:41 63° E 22:10:28 10° NNE
Okean 2 Rocket 3.5 22:05:29 29° SE 22:07:05 40° E 22:11:13 10° NNE
Cosmos 1844 3.9 22:01:30 10° SSW 22:07:15 78° WNW 22:13:04 10° NNE
YAOGAN 6 3.3 22:06:45 32° E 22:07:19 34° ENE 22:10:32 10° N
ERS-1 Rocket 3.5 22:02:31 10° S 22:07:28 58° W 22:12:26 10° NNW
Cosmos 407 Rocket 3.5 22:03:05 10° NNW 22:08:23 90° W 22:11:46 23° SSE
Cosmos 1408 2.5 22:06:51 28° S 22:08:37 66° E 22:12:15 10° NNE
Cosmos 1844 Rocket 3.5 22:03:14 10° SW 22:08:45 54° WNW 22:14:17 10° NNE
Nadezhda 3 Rocket 4.0 22:05:47 10° N 22:12:10 75° E 22:16:37 21° SSE
Cosmos 1674 Rocket 4.2 22:07:54 10° NNW 22:12:15 55° W 22:15:56 14° SSW
Cosmos 1452 Rocket 3.6 22:08:58 10° SSW 22:14:13 78° WNW 22:19:31 10° NNE
Sich 1 Rocket 4.4 22:10:59 10° SSW 22:15:27 54° W 22:19:58 10° N
MetOp-A 4.1 22:13:36 28° SSE 22:16:25 66° ENE 22:21:43 10° N
EO 1 Delta rocket 4.3 22:10:25 10° N 22:16:29 78° W 22:21:24 10° SSW
Cosmos 1140 Rocket 4.1 22:12:16 10° N 22:17:04 38° ENE 22:18:40 30° ESE
Cosmos 1242 Rocket 3.6 22:14:00 10° NNE 22:17:12 29° ENE 22:17:12 29° ENE
SPOT 1/Viking Rocket 4.0 22:18:19 32° ESE 22:20:13 46° ENE 22:25:11 10° N
Cosmos 1862 3.7 22:19:16 15° SSW 22:22:30 66° W 22:26:35 10° N
Okean 3 3.4 22:18:15 10° N 22:22:31 66° E 22:23:41 44° SE
Cosmos 1782 Rocket 3.5 22:21:11 27° S 22:23:35 81° E 22:28:05 10° N
USA 234 3.6 22:19:22 10° ENE 22:25:25 40° SE 22:31:26 10° SSW
Cosmos 2082 Rocket 3.6 22:20:52 10° N 22:25:26 24° ENE 22:27:07 21° E
CZ-4 R/B 4.2 22:22:13 10° NNE 22:26:36 39° E 22:26:54 39° ESE
Meteor 2-13 Rocket 4.4 22:23:56 23° S 22:27:56 70° E 22:34:04 10° NNE
CZ-4B R/B 3.3 22:25:34 10° NNE 22:30:28 62° ESE 22:32:07 39° SSE
Cosmos 2341 Rocket 4.1 22:25:02 10° S 22:31:21 81° W 22:37:39 10° N
Cosmos 2297 3.7 22:34:15 31° S 22:36:51 60° ESE 22:42:29 10° NNE
DNEPR-1 R/B 4.4 22:32:01 10° NNW 22:36:59 40° NE 22:37:55 36° E
Cosmos 1184 Rocket 3.7 22:39:00 38° SW 22:39:49 48° W 22:43:04 10° N
CZ-4 SHROUD 3.8 22:41:31 54° W 22:41:31 54° W 22:44:21 10° NNW
Cosmos 1975 Rocket 2.9 22:37:40 10° N 22:42:01 87° W 22:42:50 58° S
Meteor 1-27 Rocket 4.5 22:40:37 10° NNW 22:45:55 47° W 22:49:19 21° SSW
NOAA 11 4.1 22:45:02 48° SE 22:46:33 72° ENE 22:52:02 10° N
Timation 2 Rocket 3.9 22:42:04 10° NNW 22:48:00 62° ENE 22:49:32 47° ESE
SL-8 Rocket 3.9 22:45:50 33° S 22:48:54 82° E 22:55:11 10° N
Cosmos 1606 4.4 22:45:32 10° NNW 22:48:58 29° W 22:50:39 21° SW
Cosmos 1850 Rocket 4.1 22:44:50 10° N 22:50:06 59° ENE 22:50:56 53° ESE
Landsat 7 4.2 22:52:47 47° ENE 22:52:54 47° ENE 22:57:29 10° N
Cosmos 1954 Rocket 4.5 22:52:48 10° NNW 22:57:52 54° WSW 22:59:24 40° SSW
USA 245 3.9 23:00:55 44° WNW 23:00:55 44° WNW 23:03:51 10° NNW
DMSP B5D2-2 4.5 22:57:25 10° NNE 23:01:53 45° E 23:01:53 45° E
Atlas Centaur 2 3.7 23:03:21 10° WSW 23:03:39 12° WSW 23:03:39 12° WSW
ISS -0.6 23:05:27 10° W 23:07:58 20° NNW 23:10:29 10° NNE
Terra 2.3 23:09:02 46° ENE 23:09:02 46° ENE 23:13:13 10° N
Cosmos 1741 Rocket 3.8 23:04:36 10° NNW 23:09:51 88° ENE 23:10:12 79° SSE
USA 229 DEB 4.2 23:04:01 10° NNW 23:10:53 49° NE 23:12:49 40° E
USA 229 4.3 23:04:07 10° NNW 23:11:00 49° NE 23:12:55 40° E
Cosmos 2151 Rocket 3.7 23:13:00 78° NW 23:13:00 78° NW 23:17:20 10° N
Cosmos 864 Rocket 4.4 23:18:36 56° SSW 23:20:02 84° W 23:26:13 10° N
Meteor 1-20 Rocket 4.1 23:22:25 71° E 23:22:25 71° E 23:27:48 10° NNE
SL-08 RB Rocket 4.2 23:23:17 52° W 23:23:17 52° W 23:27:47 10° NNW
Cosmos 1110 Rocket 4.3 23:25:13 56° NE 23:25:13 56° NE 23:29:28 10° NNE
ARGOS 3.7 23:23:56 43° SW 23:24:53 48° W 23:30:03 10° NNW
Cosmos 2366 rocket 4.2 23:26:54 45° SW 23:28:48 67° W 23:35:07 10° N
Meteor 1-25 Rocket 4.2 23:31:42 71° SW 23:32:18 79° W 23:38:10 10° N
ASTEX 1 4.1 23:28:21 10° NNE 23:31:59 44° NE 23:31:59 44° NE
Okean 1 Rocket 4.5 23:40:29 33° NNE 23:40:29 33° NNE 23:43:02 10° NNE
H-2A R/B 2.4 23:44:16 63° W 23:44:16 63° W 23:49:26 10° NNW
Meteor 1-18 Rocket 4.5 23:42:46 10° NNW 23:48:36 64° W 23:48:47 63° WSW
Cosmos 1833 Rocket 2.8 23:44:55 10° NNW 23:49:59 72° NW 23:49:59 72° NW
